Tracking 29892 objects as of 21-Nov-2024
HD Live streaming from Space Station
objects crossing your sky now

THORAD AGENA D DEB

Track THORAD AGENA D DEB now!
10-day predictions


NORAD ID: 4453
Int'l Code: 1969-082EY
Perigee: 839.2 km
Apogee: 888.4 km
Inclination: 70.1 °
Period: 102.1 minutes
Semi major axis: 7234 km
RCS: 0.0379 m2 (small)
Launch date: September 30, 1969
Source: United States (US)
Launch site: AIR FORCE WESTERN TEST RANGE (AFWTR)

Note: This is SATELLITE DEBRIS
Your satellite tracking list
Your tracking list is empty




NASA's NSSDC Master Catalog

Two Line Element Set (TLE):
1  4453U 69082EY  24326.06549892  .00000316  00000-0  20552-3 0  9998
2  4453  70.1311 341.3331 0034033 197.7852 162.2074 14.10790136828159
Source of the keplerian elements: AFSPC